| time (UTC) | temp F | wind direction | speed knots | gust knots | rain 1hr in | rain 24hr in | rain mn in | humidity % | barometer mb |
| 20260906233524 | 80 | 210 | 6.1 | 7.8 | 0.00 | 0.00 | 0.00 | 25 | 1012.3 |
| 20260906233023 | 81 | 207 | 7.8 | 8.7 | 0.00 | 0.00 | 0.00 | 24 | 1012.2 |
| 20260906232518 | 81 | 225 | 10.4 | 12.2 | 0.00 | 0.00 | 0.00 | 23 | 1012.2 |
| 20260906232014 | 81 | 201 | 7.0 | 9.6 | 0.00 | 0.00 | 0.00 | 24 | 1012.2 |
| 20260906231508 | 81 | 224 | 9.6 | 11.3 | 0.00 | 0.00 | 0.00 | 23 | 1012.1 |
| 20260906231003 | 81 | 238 | 7.0 | 8.7 | 0.00 | 0.00 | 0.00 | 22 | 1012.3 |
| 20260906230502 | 81 | 221 | 6.1 | 7.8 | 0.00 | 0.00 | 0.00 | 24 | 1012.1 |
| 20260906230001 | 82 | 208 | 7.0 | 8.7 | 0.00 | 0.00 | 0.00 | 23 | 1012.2 |
| 20260906225455 | 82 | 221 | 7.8 | 8.7 | 0.00 | 0.00 | 0.00 | 22 | 1012.2 |
| 20260906224952 | 82 | 230 | 10.4 | 11.3 | 0.00 | 0.00 | 0.00 | 22 | 1012.2 |
| 20260906224448 | 82 | 222 | 8.7 | 9.6 | 0.00 | 0.00 | 0.00 | 21 | 1012.0 |
| 20260906223944 | 82 | 216 | 10.4 | 12.2 | 0.00 | 0.00 | 0.00 | 21 | 1012.1 |
| 20260906223439 | 83 | 233 | 6.1 | 7.8 | 0.00 | 0.00 | 0.00 | 21 | 1012.2 |
| 20260906222937 | 83 | 226 | 7.8 | 11.3 | 0.00 | 0.00 | 0.00 | 21 | 1012.2 |
| 20260906222432 | 83 | 215 | 7.8 | 8.7 | 0.00 | 0.00 | 0.00 | 21 | 1012.2 |
| 20260906221929 | 83 | 231 | 4.3 | 5.2 | 0.00 | 0.00 | 0.00 | 20 | 1012.5 |
| 20260906221429 | 84 | 228 | 2.6 | 4.3 | 0.00 | 0.00 | 0.00 | 21 | 1012.6 |
| 20260906220924 | 85 | 218 | 2.6 | 4.3 | 0.00 | 0.00 | 0.00 | 21 | 1012.5 |
| 20260906220420 | 84 | 256 | 2.6 | 2.6 | 0.00 | 0.00 | 0.00 | 21 | 1012.3 |
| 20260906215918 | 85 | 241 | 6.1 | 7.8 | 0.00 | 0.00 | 0.00 | 21 | 1012.2 |
| 20260906215413 | 85 | 247 | 2.6 | 2.6 | 0.00 | 0.00 | 0.00 | 22 | 1012.3 |
| 20260906214912 | 86 | 228 | 3.5 | 4.3 | 0.00 | 0.00 | 0.00 | 22 | 1012.3 |
| 20260906214411 | 85 | 226 | 5.2 | 7.0 | 0.00 | 0.00 | 0.00 | 22 | 1012.5 |
| 20260906213905 | 85 | 207 | 4.3 | 7.0 | 0.00 | 0.00 | 0.00 | 22 | 1012.5 |
| 20260906213405 | 85 | 250 | 2.6 | 2.6 | 0.00 | 0.00 | 0.00 | 23 | 1012.7 |
| 20260906212902 | 84 | 238 | 2.6 | 2.6 | 0.00 | 0.00 | 0.00 | 22 | 1012.3 |
| 20260906212358 | 82 | 235 | 7.8 | 7.8 | 0.00 | 0.00 | 0.00 | 23 | 1012.7 |
| 20260906211857 | 83 | 214 | 7.8 | 7.8 | 0.00 | 0.00 | 0.00 | 23 | 1013.0 |
| 20260906211353 | 84 | 217 | 7.8 | 9.6 | 0.00 | 0.00 | 0.00 | 23 | 1013.1 |
| 20260906210848 | 84 | 219 | 7.8 | 9.6 | 0.00 | 0.00 | 0.00 | 22 | 1012.9 |
| 20260906210343 | 85 | 219 | 12.2 | 13.9 | 0.00 | 0.00 | 0.00 | 21 | 1013.3 |
| 20260906205838 | 84 | 221 | 13.0 | 14.8 | 0.00 | 0.00 | 0.00 | 21 | 1013.1 |
| 20260906205334 | 85 | 235 | 5.2 | 6.1 | 0.00 | 0.00 | 0.00 | 22 | 1013.4 |
| 20260906204830 | 85 | 229 | 6.1 | 7.0 | 0.00 | 0.00 | 0.00 | 23 | 1013.3 |
| 20260906204329 | 85 | 218 | 6.1 | 7.8 | 0.00 | 0.00 | 0.00 | 24 | 1013.5 |
| 20260906203828 | 84 | 236 | 2.6 | 4.3 | 0.00 | 0.00 | 0.00 | 26 | 1013.6 |
| 20260906203324 | 84 | 214 | 4.3 | 5.2 | 0.00 | 0.00 | 0.00 | 23 | 1013.5 |
| 20260906202820 | 84 | 243 | 1.7 | 2.6 | 0.00 | 0.00 | 0.00 | 26 | 1013.4 |
| 20260906202320 | 85 | 247 | 1.7 | 1.7 | 0.00 | 0.00 | 0.00 | 28 | 1013.5 |
| 20260906201815 | 84 | 316 | 2.6 | 2.6 | 0.00 | 0.00 | 0.00 | 28 | 1013.6 |
| 20260906201314 | 83 | 237 | 4.3 | 6.1 | 0.00 | 0.00 | 0.00 | 22 | 1013.5 |
| 20260906200810 | 84 | 228 | 8.7 | 11.3 | 0.00 | 0.00 | 0.00 | 23 | 1013.6 |
| 20260906200306 | 83 | 210 | 8.7 | 14.8 | 0.00 | 0.00 | 0.00 | 22 | 1013.5 |
| 20260906195801 | 83 | 208 | 9.6 | 11.3 | 0.00 | 0.00 | 0.00 | 22 | 1013.7 |
| 20260906195257 | 83 | 232 | 7.0 | 7.0 | 0.00 | 0.00 | 0.00 | 23 | 1013.8 |
| 20260906194753 | 83 | 227 | 2.6 | 2.6 | 0.00 | 0.00 | 0.00 | 25 | 1013.7 |
| 20260906194248 | 83 | 242 | 6.1 | 6.1 | 0.00 | 0.00 | 0.00 | 26 | 1013.5 |
| 20260906193743 | 83 | 231 | 4.3 | 4.3 | 0.00 | 0.00 | 0.00 | 25 | 1013.6 |
| 20260906193237 | 82 | 228 | 4.3 | 5.2 | 0.00 | 0.00 | 0.00 | 22 | 1013.7 |
| 20260906192728 | 82 | 229 | 4.3 | 6.1 | 0.00 | 0.00 | 0.00 | 29 | 1013.6 |
| 20260906192227 | 82 | 247 | 2.6 | 2.6 | 0.00 | 0.00 | 0.00 | 33 | 1014.1 |
| 20260906191721 | 81 | 241 | 0.9 | 0.9 | 0.00 | 0.00 | 0.00 | 33 | 1013.9 |
| 20260906191221 | 80 | 198 | 4.3 | 5.2 | 0.00 | 0.00 | 0.00 | 34 | 1014.1 |
| 20260906190716 | 80 | 337 | 4.3 | 4.3 | 0.00 | 0.00 | 0.00 | 34 | 1014.3 |
| 20260906190210 | 80 | 297 | 3.5 | 4.3 | 0.00 | 0.00 | 0.00 | 36 | 1014.3 |
| 20260906185709 | 79 | 273 | 1.7 | 2.6 | 0.00 | 0.00 | 0.00 | 36 | 1014.6 |
| 20260906185208 | 78 | 249 | 1.7 | 1.7 | 0.00 | 0.00 | 0.00 | 41 | 1014.8 |
| 20260906184703 | 77 | 283 | 0.9 | 0.9 | 0.00 | 0.00 | 0.00 | 41 | 1014.9 |
| 20260906184159 | 76 | 287 | 2.6 | 2.6 | 0.00 | 0.00 | 0.00 | 43 | 1015.0 |
| 20260906183655 | 76 | 240 | 1.7 | 1.7 | 0.00 | 0.00 | 0.00 | 41 | 1015.0 |
| 20260906183151 | 76 | 245 | 2.6 | 4.3 | 0.00 | 0.00 | 0.00 | 43 | 1015.2 |
| 20260906182650 | 75 | 297 | 0.9 | 0.9 | 0.00 | 0.00 | 0.00 | 44 | 1015.2 |
| 20260906182146 | 75 | 291 | 1.7 | 2.6 | 0.00 | 0.00 | 0.00 | 44 | 1015.2 |
| 20260906181642 | 74 | 354 | 2.6 | 2.6 | 0.00 | 0.00 | 0.00 | 45 | 1015.2 |
| 20260906181138 | 73 | 347 | 2.6 | 4.3 | 0.00 | 0.00 | 0.00 | 48 | 1015.2 |
| 20260906180632 | 73 | 292 | 1.7 | 2.6 | 0.00 | 0.00 | 0.00 | 47 | 1015.6 |
| 20260906180127 | 72 | 314 | 1.7 | 1.7 | 0.00 | 0.00 | 0.00 | 49 | 1015.7 |
| 20260906175625 | 72 | 240 | 0.9 | 1.7 | 0.00 | 0.00 | 0.00 | 48 | 1015.7 |
| 20260906175120 | 71 | 276 | 1.7 | 1.7 | 0.00 | 0.00 | 0.00 | 51 | 1016.2 |
| 20260906174618 | 71 | 349 | 3.5 | 5.2 | 0.00 | 0.00 | 0.00 | 50 | 1015.8 |
| 20260906174113 | 71 | 252 | 1.7 | 1.7 | 0.00 | 0.00 | 0.00 | 52 | 1016.0 |
| 20260906173608 | 71 | 269 | 2.6 | 2.6 | 0.00 | 0.00 | 0.00 | 52 | 1016.1 |
| 20260906173104 | 70 | 239 | 0.0 | 0.9 | 0.00 | 0.00 | 0.00 | 52 | 1016.1 |
| 20260906172558 | 70 | 229 | 0.9 | 0.9 | 0.00 | 0.00 | 0.00 | 52 | 1016.4 |
| 20260906172054 | 69 | 249 | 1.7 | 1.7 | 0.00 | 0.00 | 0.00 | 52 | 1016.2 |
| 20260906171553 | 68 | 345 | 0.9 | 2.6 | 0.00 | 0.00 | 0.00 | 52 | 1016.5 |
| 20260906171049 | 68 | 346 | 2.6 | 4.3 | 0.00 | 0.00 | 0.00 | 54 | 1016.4 |
| 20260906170544 | 69 | 329 | 3.5 | 4.3 | 0.00 | 0.00 | 0.00 | 54 | 1016.5 |
| 20260906170043 | 69 | 235 | 0.0 | 0.9 | 0.00 | 0.00 | 0.00 | 54 | 1016.5 |
| 20260906165541 | 69 | 233 | 0.9 | 1.7 | 0.00 | 0.00 | 0.00 | 51 | 1016.6 |
| 20260906165035 | 67 | 223 | 0.9 | 0.9 | 0.00 | 0.00 | 0.00 | 54 | 1016.5 |
| 20260906164534 | 66 | 255 | 1.7 | 2.6 | 0.00 | 0.00 | 0.00 | 57 | 1016.6 |
| 20260906164031 | 65 | 309 | 2.6 | 2.6 | 0.00 | 0.00 | 0.00 | 57 | 1016.6 |
| 20260906163526 | 66 | 282 | 1.7 | 1.7 | 0.00 | 0.00 | 0.00 | 58 | 1016.6 |
| 20260906163021 | 66 | 311 | 2.6 | 2.6 | 0.00 | 0.00 | 0.00 | 56 | 1016.5 |
| 20260906162518 | 65 | 151 | 0.9 | 0.9 | 0.00 | 0.00 | 0.00 | 58 | 1016.7 |
| 20260906162013 | 65 | 163 | 2.6 | 2.6 | 0.00 | 0.00 | 0.00 | 58 | 1016.7 |
| 20260906161508 | 64 | 141 | 2.6 | 2.6 | 0.00 | 0.00 | 0.00 | 60 | 1016.8 |
| 20260906161007 | 64 | 117 | 2.6 | 2.6 | 0.00 | 0.00 | 0.00 | 60 | 1016.8 |
| 20260906160501 | 65 | 189 | 0.9 | 0.9 | 0.00 | 0.00 | 0.00 | 60 | 1016.9 |
| 20260906155958 | 65 | 170 | 0.9 | 0.9 | 0.00 | 0.00 | 0.00 | 58 | 1016.9 |
| 20260906155457 | 64 | 201 | 0.0 | 0.9 | 0.00 | 0.00 | 0.00 | 58 | 1017.1 |
| 20260906154953 | 64 | 130 | 0.0 | 0.0 | 0.00 | 0.00 | 0.00 | 61 | 1017.2 |
| 20260906154449 | 64 | 130 | 0.9 | 1.7 | 0.00 | 0.00 | 0.00 | 60 | 1017.2 |
| 20260906153947 | 63 | 172 | 1.7 | 1.7 | 0.00 | 0.00 | 0.00 | 61 | 1017.2 |
| 20260906153446 | 64 | 186 | 1.7 | 2.6 | 0.00 | 0.00 | 0.00 | 60 | 1017.2 |
| 20260906152942 | 63 | 209 | 0.9 | 0.9 | 0.00 | 0.00 | 0.00 | 62 | 1017.3 |
| 20260906152441 | 62 | 215 | 0.9 | 0.9 | 0.00 | 0.00 | 0.00 | 62 | 1017.5 |
| 20260906151941 | 62 | 112 | 0.9 | 0.9 | 0.00 | 0.00 | 0.00 | 63 | 1017.3 |
| 20260906151436 | 61 | 110 | 0.0 | 0.0 | 0.00 | 0.00 | 0.00 | 64 | 1017.4 |
| 20260906150932 | 60 | 110 | 1.7 | 1.7 | 0.00 | 0.00 | 0.00 | 66 | 1017.1 |
| 20260906150427 | 59 | 110 | 0.9 | 0.9 | 0.00 | 0.00 | 0.00 | 66 | 1017.3 |
| 20260906145926 | 59 | 110 | 0.0 | 0.9 | 0.00 | 0.00 | 0.00 | 67 | 1017.4 |
| 20260906145426 | 58 | 111 | 0.0 | 0.0 | 0.00 | 0.00 | 0.00 | 69 | 1017.5 |
| 20260906144920 | 58 | 111 | 1.7 | 1.7 | 0.00 | 0.00 | 0.00 | 70 | 1017.6 |
| 20260906144415 | 58 | 122 | 2.6 | 2.6 | 0.00 | 0.00 | 0.00 | 72 | 1017.1 |
| 20260906143910 | 57 | 126 | 0.9 | 1.7 | 0.00 | 0.00 | 0.00 | 71 | 1017.3 |
| 20260906143406 | 57 | 126 | 0.9 | 1.7 | 0.00 | 0.00 | 0.00 | 73 | 1017.3 |
| 20260906142902 | 56 | 130 | 1.7 | 1.7 | 0.00 | 0.00 | 0.00 | 75 | 1017.3 |
| 20260906142355 | 56 | 130 | 2.6 | 2.6 | 0.00 | 0.00 | 0.00 | 74 | 1017.3 |
| 20260906141850 | 55 | 154 | 0.0 | 0.9 | 0.00 | 0.00 | 0.00 | 75 | 1017.4 |
| 20260906141344 | 54 | 153 | 0.9 | 1.7 | 0.00 | 0.00 | 0.00 | 77 | 1017.2 |
| 20260906140844 | 53 | 164 | 0.9 | 0.9 | 0.00 | 0.00 | 0.00 | 80 | 1017.6 |
| 20260906140339 | 52 | 171 | 0.9 | 0.9 | 0.00 | 0.00 | 0.00 | 80 | 1017.2 |
| 20260906135836 | 52 | 203 | 0.9 | 0.9 | 0.00 | 0.00 | 0.00 | 81 | 1017.1 |
| 20260906135331 | 50 | 224 | 0.0 | 0.0 | 0.00 | 0.00 | 0.00 | 83 | 1017.3 |
| 20260906134827 | 49 | 225 | 0.0 | 0.0 | 0.00 | 0.00 | 0.00 | 84 | 1016.9 |
| 20260906134322 | 48 | 287 | 0.9 | 0.9 | 0.00 | 0.00 | 0.00 | 83 | 1017.1 |
| 20260906133818 | 48 | 304 | 2.6 | 2.6 | 0.00 | 0.00 | 0.00 | 82 | 1016.8 |
| 20260906133313 | 48 | 260 | 1.7 | 1.7 | 0.00 | 0.00 | 0.00 | 82 | 1016.9 |
| 20260906132808 | 48 | 235 | 0.9 | 0.9 | 0.00 | 0.00 | 0.00 | 81 | 1016.8 |
| 20260906132306 | 48 | 218 | 0.0 | 0.0 | 0.00 | 0.00 | 0.00 | 80 | 1016.6 |
| 20260906131759 | 49 | 218 | 0.0 | 0.0 | 0.00 | 0.00 | 0.00 | 79 | 1016.7 |
| 20260906131253 | 49 | 217 | 0.0 | 0.0 | 0.00 | 0.00 | 0.00 | 79 | 1016.7 |
| 20260906130749 | 49 | 217 | 0.0 | 0.9 | 0.00 | 0.00 | 0.00 | 80 | 1016.6 |
| 20260906130244 | 49 | 217 | 0.0 | 0.0 | 0.00 | 0.00 | 0.00 | 78 | 1016.8 |
| 20260906125743 | 50 | 217 | 0.0 | 0.0 | 0.00 | 0.00 | 0.00 | 79 | 1016.7 |
| 20260906125241 | 50 | 218 | 0.9 | 0.9 | 0.00 | 0.00 | 0.00 | 79 | 1016.4 |
| 20260906124735 | 49 | 226 | 0.9 | 1.7 | 0.00 | 0.00 | 0.00 | 81 | 1016.4 |
| 20260906124231 | 49 | 213 | 0.9 | 1.7 | 0.00 | 0.00 | 0.00 | 81 | 1016.2 |
| 20260906123730 | 49 | 213 | 0.9 | 0.9 | 0.00 | 0.00 | 0.00 | 82 | 1016.1 |
| 20260906123226 | 49 | 213 | 0.9 | 0.9 | 0.00 | 0.00 | 0.00 | 81 | 1016.6 |
| 20260906122725 | 48 | 213 | 0.9 | 0.9 | 0.00 | 0.00 | 0.00 | 82 | 1016.5 |
| 20260906122220 | 48 | 213 | 0.9 | 0.9 | 0.00 | 0.00 | 0.00 | 82 | 1016.2 |
| 20260906121717 | 48 | 213 | 0.0 | 0.0 | 0.00 | 0.00 | 0.00 | 81 | 1016.1 |
| 20260906121213 | 48 | 213 | 0.0 | 0.0 | 0.00 | 0.00 | 0.00 | 80 | 1016.4 |
| 20260906120708 | 49 | 213 | 0.0 | 0.0 | 0.00 | 0.00 | 0.00 | 78 | 1016.5 |
| 20260906120205 | 50 | 213 | 0.9 | 1.7 | 0.00 | 0.00 | 0.00 | 78 | 1016.2 |
| 20260906115700 | 49 | 215 | 0.9 | 1.7 | 0.00 | 0.00 | 0.00 | 79 | 1016.5 |
| 20260906115155 | 49 | 221 | 0.0 | 0.0 | 0.00 | 0.00 | 0.00 | 79 | 1016.4 |
| 20260906114654 | 49 | 221 | 0.0 | 0.0 | 0.00 | 0.00 | 0.00 | 79 | 1016.6 |
| 20260906114149 | 49 | 222 | 0.0 | 0.0 | 0.00 | 0.00 | 0.00 | 78 | 1016.2 |
| 20260906113644 | 50 | 221 | 0.0 | 0.0 | 0.00 | 0.00 | 0.00 | 78 | 1016.1 |
| 20260906113144 | 50 | 221 | 0.0 | 0.0 | 0.00 | 0.00 | 0.00 | 77 | 1016.0 |
| 20260906112643 | 50 | 221 | 0.0 | 0.0 | 0.00 | 0.00 | 0.00 | 79 | 1016.1 |
| 20260906112141 | 49 | 215 | 0.0 | 0.0 | 0.00 | 0.00 | 0.00 | 79 | 1016.0 |
| 20260906111639 | 49 | 215 | 0.0 | 0.0 | 0.00 | 0.00 | 0.00 | 78 | 1015.9 |
| 20260906111134 | 50 | 215 | 0.0 | 0.0 | 0.00 | 0.00 | 0.00 | 78 | 1016.2 |
| 20260906110629 | 50 | 215 | 0.0 | 0.0 | 0.00 | 0.00 | 0.00 | 77 | 1016.2 |
| 20260906110124 | 50 | 215 | 0.0 | 0.0 | 0.00 | 0.00 | 0.00 | 77 | 1016.0 |
| 20260906105618 | 51 | 215 | 0.0 | 0.0 | 0.00 | 0.00 | 0.00 | 77 | 1016.1 |
| 20260906105115 | 51 | 215 | 0.0 | 0.0 | 0.00 | 0.00 | 0.00 | 76 | 1015.9 |
| 20260906104614 | 52 | 215 | 0.0 | 0.0 | 0.00 | 0.00 | 0.00 | 75 | 1016.0 |
| 20260906104108 | 53 | 215 | 0.0 | 0.0 | 0.00 | 0.00 | 0.00 | 72 | 1016.0 |
| 20260906103606 | 54 | 215 | 0.0 | 0.0 | 0.00 | 0.00 | 0.00 | 70 | 1015.9 |
| 20260906103102 | 55 | 214 | 0.9 | 0.9 | 0.00 | 0.00 | 0.00 | 68 | 1015.9 |
| 20260906102602 | 56 | 218 | 3.5 | 4.3 | 0.00 | 0.00 | 0.00 | 67 | 1015.7 |
| 20260906102056 | 57 | 216 | 4.3 | 4.3 | 0.00 | 0.00 | 0.00 | 66 | 1015.8 |
| 20260906101551 | 57 | 223 | 4.3 | 6.1 | 0.00 | 0.00 | 0.00 | 65 | 1015.7 |
| 20260906101045 | 57 | 224 | 4.3 | 5.2 | 0.00 | 0.00 | 0.00 | 66 | 1015.4 |
| 20260906100541 | 57 | 231 | 5.2 | 6.1 | 0.00 | 0.00 | 0.00 | 66 | 1015.6 |
| 20260906100042 | 57 | 221 | 2.6 | 4.3 | 0.00 | 0.00 | 0.00 | 66 | 1015.6 |
| 20260906095536 | 57 | 219 | 4.3 | 5.2 | 0.00 | 0.00 | 0.00 | 65 | 1015.3 |
| 20260906095032 | 57 | 231 | 3.5 | 4.3 | 0.00 | 0.00 | 0.00 | 66 | 1015.3 |
| 20260906094530 | 57 | 218 | 2.6 | 4.3 | 0.00 | 0.00 | 0.00 | 65 | 1015.1 |
| 20260906094027 | 58 | 226 | 3.5 | 4.3 | 0.00 | 0.00 | 0.00 | 65 | 1015.0 |
| 20260906093522 | 58 | 226 | 4.3 | 4.3 | 0.00 | 0.00 | 0.00 | 65 | 1015.0 |
| 20260906093022 | 58 | 237 | 3.5 | 4.3 | 0.00 | 0.00 | 0.00 | 66 | 1014.9 |
| 20260906092517 | 59 | 235 | 2.6 | 2.6 | 0.00 | 0.00 | 0.00 | 65 | 1014.8 |
| 20260906092013 | 59 | 274 | 2.6 | 2.6 | 0.00 | 0.00 | 0.00 | 64 | 1014.6 |
| 20260906091508 | 59 | 236 | 2.6 | 2.6 | 0.00 | 0.00 | 0.00 | 65 | 1014.6 |
| 20260906091005 | 58 | 239 | 2.6 | 2.6 | 0.00 | 0.00 | 0.00 | 66 | 1014.4 |
| 20260906090504 | 58 | 228 | 2.6 | 2.6 | 0.00 | 0.00 | 0.00 | 65 | 1014.3 |
| 20260906085959 | 59 | 239 | 1.7 | 1.7 | 0.00 | 0.00 | 0.00 | 65 | 1014.5 |
| 20260906085458 | 57 | 238 | 0.9 | 0.9 | 0.00 | 0.00 | 0.00 | 62 | 1014.1 |
| 20260906084957 | 53 | 241 | 0.9 | 0.9 | 0.00 | 0.00 | 0.00 | 63 | 1014.1 |
| 20260906084452 | 53 | 250 | 0.0 | 0.0 | 0.00 | 0.00 | 0.00 | 66 | 1014.1 |
| 20260906083951 | 54 | 270 | 1.7 | 1.7 | 0.00 | 0.00 | 0.00 | 65 | 1013.8 |
| 20260906083447 | 53 | 309 | 1.7 | 1.7 | 0.00 | 0.00 | 0.00 | 69 | 1013.9 |
| 20260906082946 | 52 | 309 | 2.6 | 2.6 | 0.00 | 0.00 | 0.00 | 67 | 1013.6 |
| 20260906082442 | 49 | 309 | 0.9 | 0.9 | 0.00 | 0.00 | 0.00 | 77 | 1013.9 |
| 20260906081937 | 49 | 308 | 0.0 | 0.0 | 0.00 | 0.00 | 0.00 | 78 | 1013.9 |
| 20260906081432 | 50 | 308 | 0.0 | 0.0 | 0.00 | 0.00 | 0.00 | 77 | 1013.8 |
| 20260906080929 | 51 | 308 | 0.0 | 0.9 | 0.00 | 0.00 | 0.00 | 76 | 1013.7 |
| 20260906080425 | 51 | 308 | 0.9 | 0.9 | 0.00 | 0.00 | 0.00 | 76 | 1013.8 |
| 20260906075925 | 51 | 308 | 0.0 | 0.9 | 0.00 | 0.00 | 0.00 | 76 | 1013.9 |
| 20260906075420 | 51 | 250 | 0.0 | 0.0 | 0.00 | 0.00 | 0.00 | 75 | 1014.1 |
| 20260906074915 | 51 | 294 | 2.6 | 2.6 | 0.00 | 0.00 | 0.00 | 75 | 1014.2 |
| 20260906074409 | 51 | 306 | 1.7 | 2.6 | 0.00 | 0.00 | 0.00 | 78 | 1014.3 |
| 20260906073908 | 51 | 262 | 1.7 | 1.7 | 0.00 | 0.00 | 0.00 | 77 | 1014.2 |
| 20260906073403 | 51 | 268 | 0.9 | 0.9 | 0.00 | 0.00 | 0.00 | 77 | 1013.8 |
| 20260906072859 | 51 | 268 | 1.7 | 1.7 | 0.00 | 0.00 | 0.00 | 76 | 1013.7 |
| 20260906072354 | 52 | 257 | 1.7 | 1.7 | 0.00 | 0.00 | 0.00 | 75 | 1013.8 |
| 20260906071850 | 53 | 256 | 0.9 | 1.7 | 0.00 | 0.00 | 0.00 | 74 | 1013.6 |
| 20260906071345 | 52 | 251 | 0.9 | 0.9 | 0.00 | 0.00 | 0.00 | 74 | 1013.9 |
| 20260906070841 | 53 | 215 | 0.0 | 0.0 | 0.00 | 0.00 | 0.00 | 72 | 1013.7 |
| 20260906070337 | 53 | 223 | 0.9 | 0.9 | 0.00 | 0.00 | 0.00 | 72 | 1013.9 |
| 20260906065832 | 53 | 226 | 0.9 | 0.9 | 0.00 | 0.00 | 0.00 | 72 | 1013.9 |
| 20260906065326 | 53 | 236 | 0.9 | 0.9 | 0.00 | 0.00 | 0.00 | 71 | 1013.6 |
| 20260906064822 | 54 | 212 | 1.7 | 1.7 | 0.00 | 0.00 | 0.00 | 67 | 1013.9 |
| 20260906064319 | 55 | 217 | 2.6 | 2.6 | 0.00 | 0.00 | 0.00 | 65 | 1013.9 |
| 20260906063813 | 55 | 250 | 0.9 | 0.9 | 0.00 | 0.00 | 0.00 | 63 | 1013.9 |
| 20260906063309 | 55 | 230 | 0.9 | 0.9 | 0.00 | 0.00 | 0.00 | 64 | 1013.9 |
| 20260906062803 | 55 | 238 | 0.0 | 0.0 | 0.00 | 0.00 | 0.00 | 62 | 1014.1 |
| 20260906062305 | 56 | 225 | 0.0 | 0.0 | 0.00 | 0.00 | 0.00 | 61 | 1014.1 |
| 20260906061758 | 56 | 250 | 0.0 | 0.0 | 0.00 | 0.00 | 0.00 | 62 | 1014.1 |
| 20260906061255 | 57 | 252 | 0.9 | 0.9 | 0.00 | 0.00 | 0.00 | 62 | 1013.9 |
| 20260906060749 | 58 | 236 | 0.0 | 0.9 | 0.00 | 0.00 | 0.00 | 56 | 1014.1 |
| 20260906060247 | 58 | 257 | 0.9 | 1.7 | 0.00 | 0.00 | 0.00 | 57 | 1014.1 |
| 20260906055742 | 58 | 240 | 0.0 | 0.0 | 0.00 | 0.00 | 0.00 | 54 | 1014.1 |
| 20260906055238 | 58 | 240 | 0.0 | 0.0 | 0.00 | 0.00 | 0.00 | 54 | 1014.2 |
| 20260906054733 | 58 | 240 | 0.0 | 0.0 | 0.00 | 0.00 | 0.00 | 54 | 1014.4 |
| 20260906054228 | 59 | 252 | 0.0 | 0.9 | 0.00 | 0.00 | 0.00 | 52 | 1014.4 |
| 20260906053724 | 60 | 269 | 0.9 | 0.9 | 0.00 | 0.00 | 0.00 | 50 | 1014.5 |
| 20260906053220 | 59 | 293 | 1.7 | 1.7 | 0.00 | 0.00 | 0.00 | 48 | 1014.8 |
| 20260906052715 | 58 | 251 | 0.0 | 0.0 | 0.00 | 0.00 | 0.00 | 51 | 1014.8 |
| 20260906052211 | 57 | 239 | 0.0 | 0.0 | 0.00 | 0.00 | 0.00 | 55 | 1014.8 |
| 20260906051708 | 57 | 244 | 0.0 | 0.0 | 0.00 | 0.00 | 0.00 | 55 | 1015.0 |
| 20260906051207 | 57 | 257 | 0.9 | 0.9 | 0.00 | 0.00 | 0.00 | 56 | 1014.9 |
| 20260906050703 | 57 | 258 | 0.9 | 0.9 | 0.00 | 0.00 | 0.00 | 59 | 1015.0 |
| 20260906050158 | 57 | 272 | 0.9 | 1.7 | 0.00 | 0.00 | 0.00 | 59 | 1015.1 |
| 20260906045656 | 57 | 256 | 0.9 | 1.7 | 0.00 | 0.00 | 0.00 | 58 | 1015.1 |
| 20260906045151 | 57 | 185 | 0.9 | 0.9 | 0.00 | 0.00 | 0.00 | 58 | 1015.2 |
| 20260906044647 | 59 | 183 | 0.9 | 0.9 | 0.00 | 0.00 | 0.00 | 56 | 1015.2 |
| 20260906044142 | 60 | 176 | 0.9 | 0.9 | 0.00 | 0.00 | 0.00 | 53 | 1015.2 |
| 20260906043639 | 60 | 173 | 0.9 | 0.9 | 0.00 | 0.00 | 0.00 | 52 | 1015.4 |
| 20260906043134 | 60 | 173 | 0.9 | 0.9 | 0.00 | 0.00 | 0.00 | 50 | 1015.1 |
| 20260906042633 | 60 | 172 | 0.0 | 0.0 | 0.00 | 0.00 | 0.00 | 51 | 1015.1 |
| 20260906042128 | 61 | 171 | 0.0 | 0.0 | 0.00 | 0.00 | 0.00 | 47 | 1015.4 |
| 20260906041623 | 62 | 171 | 0.0 | 0.0 | 0.00 | 0.00 | 0.00 | 46 | 1015.2 |
| 20260906041118 | 62 | 158 | 0.0 | 0.0 | 0.00 | 0.00 | 0.00 | 45 | 1015.6 |
| 20260906040614 | 63 | 157 | 0.0 | 0.0 | 0.00 | 0.00 | 0.00 | 46 | 1015.3 |
| 20260906040109 | 63 | 174 | 1.7 | 1.7 | 0.00 | 0.00 | 0.00 | 46 | 1015.7 |
| 20260906035604 | 64 | 158 | 0.9 | 0.9 | 0.00 | 0.00 | 0.00 | 46 | 1015.6 |
| 20260906035100 | 64 | 158 | 2.6 | 2.6 | 0.00 | 0.00 | 0.00 | 46 | 1015.6 |
| 20260906034600 | 66 | 150 | 1.7 | 1.7 | 0.00 | 0.00 | 0.00 | 47 | 1015.4 |
| 20260906034054 | 66 | 172 | 2.6 | 2.6 | 0.00 | 0.00 | 0.00 | 44 | 1015.4 |
| 20260906033550 | 66 | 154 | 2.6 | 2.6 | 0.00 | 0.00 | 0.00 | 44 | 1015.7 |
| 20260906033045 | 67 | 155 | 0.9 | 1.7 | 0.00 | 0.00 | 0.00 | 45 | 1015.6 |
| 20260906032542 | 67 | 135 | 1.7 | 1.7 | 0.00 | 0.00 | 0.00 | 44 | 1015.6 |
| 20260906032036 | 67 | 149 | 1.7 | 1.7 | 0.00 | 0.00 | 0.00 | 44 | 1015.7 |
| 20260906031532 | 67 | 161 | 1.7 | 1.7 | 0.00 | 0.00 | 0.00 | 44 | 1015.7 |
| 20260906031028 | 67 | 131 | 2.6 | 2.6 | 0.00 | 0.00 | 0.00 | 44 | 1015.4 |
| 20260906030527 | 67 | 159 | 1.7 | 1.7 | 0.00 | 0.00 | 0.00 | 45 | 1015.4 |
| 20260906030026 | 67 | 170 | 0.9 | 0.9 | 0.00 | 0.00 | 0.00 | 44 | 1015.6 |
| 20260906025526 | 67 | 170 | 0.9 | 0.9 | 0.00 | 0.00 | 0.00 | 46 | 1015.6 |
| 20260906025024 | 68 | 186 | 0.9 | 0.9 | 0.00 | 0.00 | 0.00 | 45 | 1015.4 |
| 20260906024519 | 68 | 161 | 1.7 | 1.7 | 0.00 | 0.00 | 0.00 | 44 | 1015.7 |
| 20260906024014 | 68 | 198 | 0.9 | 0.9 | 0.00 | 0.00 | 0.00 | 44 | 1015.3 |
| 20260906023510 | 68 | 222 | 0.9 | 0.9 | 0.00 | 0.00 | 0.00 | 47 | 1015.2 |
| 20260906023004 | 68 | 223 | 0.9 | 0.9 | 0.00 | 0.00 | 0.00 | 47 | 1015.2 |
| 20260906022500 | 68 | 225 | 0.9 | 0.9 | 0.00 | 0.00 | 0.00 | 47 | 1015.0 |
| 20260906021955 | 67 | 225 | 0.9 | 0.9 | 0.00 | 0.00 | 0.00 | 48 | 1015.2 |
| 20260906021450 | 67 | 225 | 0.0 | 0.0 | 0.00 | 0.00 | 0.00 | 49 | 1015.1 |
| 20260906020944 | 68 | 225 | 0.0 | 0.0 | 0.00 | 0.00 | 0.00 | 48 | 1015.2 |
| 20260906020439 | 68 | 225 | 0.0 | 0.0 | 0.00 | 0.00 | 0.00 | 49 | 1015.4 |
| 20260906015933 | 69 | 225 | 0.9 | 0.9 | 0.00 | 0.00 | 0.00 | 48 | 1015.1 |
| 20260906015432 | 70 | 226 | 0.9 | 0.9 | 0.00 | 0.00 | 0.00 | 49 | 1015.1 |
| 20260906014926 | 71 | 235 | 0.0 | 0.0 | 0.00 | 0.00 | 0.00 | 43 | 1015.1 |
| 20260906014426 | 72 | 235 | 0.0 | 0.0 | 0.00 | 0.00 | 0.00 | 42 | 1015.1 |
| 20260906013922 | 72 | 235 | 0.0 | 0.0 | 0.00 | 0.00 | 0.00 | 40 | 1015.1 |
| 20260906013418 | 73 | 235 | 0.0 | 0.0 | 0.00 | 0.00 | 0.00 | 39 | 1015.4 |
| 20260906012914 | 73 | 235 | 0.0 | 0.0 | 0.00 | 0.00 | 0.00 | 39 | 1015.2 |
| 20260906012408 | 74 | 235 | 0.0 | 0.0 | 0.00 | 0.00 | 0.00 | 39 | 1015.2 |
| 20260906011907 | 75 | 235 | 0.0 | 0.0 | 0.00 | 0.00 | 0.00 | 37 | 1015.2 |
| 20260906011402 | 75 | 235 | 0.0 | 0.0 | 0.00 | 0.00 | 0.00 | 37 | 1015.2 |
| 20260906010858 | 75 | 235 | 0.0 | 0.0 | 0.00 | 0.00 | 0.00 | 38 | 1015.3 |
| 20260906010354 | 76 | 235 | 0.0 | 0.0 | 0.00 | 0.00 | 0.00 | 36 | 1015.2 |
| 20260906005850 | 77 | 235 | 0.0 | 0.0 | 0.00 | 0.00 | 0.00 | 36 | 1015.3 |
| 20260906005349 | 78 | 235 | 0.0 | 0.0 | 0.00 | 0.00 | 0.00 | 34 | 1015.2 |
| 20260906004847 | 79 | 236 | 0.0 | 0.0 | 0.00 | 0.00 | 0.00 | 34 | 1015.1 |
| 20260906004347 | 80 | 236 | 0.0 | 0.0 | 0.00 | 0.00 | 0.00 | 32 | 1015.4 |
| 20260906003842 | 82 | 236 | 0.9 | 0.9 | 0.00 | 0.00 | 0.00 | 30 | 1015.2 |
| 20260906003338 | 84 | 235 | 0.0 | 0.0 | 0.00 | 0.00 | 0.00 | 29 | 1015.1 |
| 20260906002833 | 85 | 237 | 0.0 | 0.9 | 0.00 | 0.00 | 0.00 | 28 | 1015.2 |
| 20260906002332 | 85 | 237 | 0.0 | 0.0 | 0.00 | 0.00 | 0.00 | 29 | 1015.1 |
| 20260906001828 | 85 | 237 | 0.0 | 0.9 | 0.00 | 0.00 | 0.00 | 30 | 1015.3 |
| 20260906001324 | 85 | 237 | 0.0 | 0.0 | 0.00 | 0.00 | 0.00 | 31 | 1015.1 |
| 20260906000819 | 85 | 237 | 0.0 | 0.0 | 0.00 | 0.00 | 0.00 | 29 | 1015.1 |
| 20260906000313 | 85 | 243 | 0.0 | 0.0 | 0.00 | 0.00 | 0.00 | 30 | 1015.1 |
| 20260905235808 | 84 | 229 | 0.0 | 0.0 | 0.00 | 0.00 | 0.00 | 29 | 1015.3 |
| 20260905235306 | 83 | 242 | 0.9 | 0.9 | 0.00 | 0.00 | 0.00 | 30 | 1015.3 |
| 20260905234758 | 84 | 231 | 1.7 | 1.7 | 0.00 | 0.00 | 0.00 | 29 | 1015.0 |
| 20260905234253 | 84 | 246 | 0.9 | 0.9 | 0.00 | 0.00 | 0.00 | 31 | 1015.2 |